This is the latest recevied weather packets stored in our database for station/object DH1NAI-6. If no packets are shown the sender has not sent any weather packets the latest 10 day(s).
| Time | Temp. | Humidity | Pressure | Rain* | Wind** | Luminosity | Snow |
|---|---|---|---|---|---|---|---|
| 1777720260 | 21.11° C | 37% | 1019.4 hPa | 0 mm | - | 185 W/m² | - |
| 1777719651 | 21.11° C | 37% | 1019.7 hPa | 0 mm | - | 185 W/m² | - |
| 1777719043 | 21.11° C | 40% | 1019.4 hPa | 0 mm | - | 189 W/m² | - |
| 1777718433 | 20.56° C | 42% | 1019.5 hPa | 0 mm | - | 177 W/m² | - |
| 1777717811 | 20° C | 44% | 1019.9 hPa | 0 mm | - | 172 W/m² | - |
| 1777717203 | 20.56° C | 43% | 1020.1 hPa | 0 mm | - | 178 W/m² | - |
| 1777716595 | 19.44° C | 45% | 1019.9 hPa | 0 mm | - | 187 W/m² | - |
| 1777715988 | 20° C | 45% | 1020.2 hPa | 0 mm | - | 188 W/m² | - |
| 1777715373 | 20° C | 45% | 1020.3 hPa | 0 mm | - | 191 W/m² | - |
| 1777714772 | 19.44° C | 47% | 1020.3 hPa | 0 mm | - | 191 W/m² | - |
| 1777714163 | 19.44° C | 47% | 1020.4 hPa | 0 mm | - | 193 W/m² | - |
| 1777713539 | 18.89° C | 45% | 1020.7 hPa | 0 mm | - | 181 W/m² | - |
| 1777712915 | 19.44° C | 44% | 1020.6 hPa | 0 mm | - | 178 W/m² | - |
| 1777712307 | 18.89° C | 44% | 1020.9 hPa | 0 mm | - | 189 W/m² | - |
| 1777711700 | 18.89° C | 44% | 1020.9 hPa | 0 mm | - | 184 W/m² | - |
| 1777711091 | 18.33° C | 44% | 1021 hPa | 0 mm | - | 176 W/m² | - |
| 1777710484 | 17.78° C | 44% | 1021 hPa | 0 mm | - | 170 W/m² | - |
| 1777709875 | 18.33° C | 45% | 1020.9 hPa | 0 mm | - | 172 W/m² | - |
| 1777709268 | 18.33° C | 45% | 1020.7 hPa | 0 mm | - | 170 W/m² | - |
| 1777708653 | 18.33° C | 44% | 1021.1 hPa | 0 mm | - | 157 W/m² | - |
| 1777708052 | 17.78° C | 47% | 1021.1 hPa | 0 mm | - | 140 W/m² | - |
| 1777707443 | 17.78° C | 49% | 1021.2 hPa | 0 mm | - | 121 W/m² | - |
| 1777706819 | 17.22° C | 50% | 1021.2 hPa | 0 mm | - | 112 W/m² | - |
| 1777706195 | 16.67° C | 50% | 1021.2 hPa | 0 mm | - | 103 W/m² | - |
| 1777705587 | 16.11° C | 51% | 1021.1 hPa | 0 mm | - | 94 W/m² | - |
* Rain latest hour (hover to see other rain measurements)
** Current wind speed in m/s (hover to see current wind gust speed)